Weather History for KRDG - December, 2012

Change the Weather History Date:

Wednesday, December 5, 2012

  Actual Average Record
Temperature  
Mean Temperature 47 °F 37 °F  
Max Temperature 61 °F 45 °F 72 °F (2001)
Min Temperature 33 °F 29 °F 12 °F (1936)
Degree Days  
Heating Degree Days 18 28  
Month to date heating degree days 83 137  
Since 1 July heating degree days 1134 1204  
Cooling Degree Days 0 0  
Month to date cooling degree days 0 0  
Year to date cooling degree days 1281 896  
Moisture  
Dew Point 35 °F    
Average Humidity 61    
Maximum Humidity 77    
Minimum Humidity 44    
Precipitation  
Precipitation T in 0.12 in 2.60 in (1993)
Month to date precipitation 0.06 0.59  
Year to date precipitation 35.98 40.57  
Sea Level Pressure  
Sea Level Pressure 30.12 in    
Wind  
Wind Speed 12 mph (NW)    
Max Wind Speed 25 mph    
Max Gust Speed 35 mph    
Visibility 10 miles    
Events Rain    
T = Trace of Precipitation, MM = Missing Value Source: NWS Daily Summary

Daily Weather History Graph

Daily Weather History Graph

Search for Another Location

Airport or City:

Trip Planner

Search our weather history database for the weather conditions in past years. The results will help you decide how hot, cold, wet, or windy it might be!

Date:

Astronomy

Dec. 05, 2012 Rise Set
Actual Time 7:11 AM EST 4:37 PM EST
Civil Twilight 6:41 AM EST 5:07 PM EST
Nautical Twilight 6:07 AM EST 5:41 PM EST
Astronomical Twilight 5:34 AM EST 6:14 PM EST
Moon 11:25 PM EST (12/5) 11:33 AM EST (12/5)
Length of Visible Light 10h 26m
Length of Day
9h 25m
Waning Gibbous, 60% of the Moon is Illuminated
Dec 5
Waning Gibbous
Dec 6
Last Quarter
Dec 13
New
Dec 20
First Quarter
Dec 28
Full

Hourly Weather History & Observations

Time (EST) Temp. Windchill Dew Point Humidity Pressure Visibility Wind Dir Wind Speed Gust Speed Precip Events Conditions
12:54 AM 60.1 °F - 51.1 °F 72% 29.95 in 10.0 mi South 4.6 mph - 0.00 in Rain Light Rain
1:54 AM 57.9 °F - 52.0 °F 81% 29.95 in 10.0 mi West 4.6 mph - 0.00 in   Overcast
2:54 AM 57.0 °F - 50.0 °F 77% 29.99 in 10.0 mi NNW 11.5 mph - N/A   Overcast
3:49 AM 55.4 °F - 50.0 °F 82% 29.99 in 10.0 mi NW 6.9 mph - 0.00 in   Overcast
3:54 AM 55.0 °F - 48.9 °F 80% 30.01 in 10.0 mi NW 6.9 mph - 0.00 in   Overcast
4:46 AM 53.6 °F - 46.4 °F 77% 29.99 in 10.0 mi NW 9.2 mph - N/A   Partly Cloudy
4:54 AM 53.1 °F - 46.9 °F 80% 30.01 in 10.0 mi WNW 9.2 mph - N/A   Scattered Clouds
5:54 AM 52.0 °F - 42.1 °F 69% 30.04 in 10.0 mi NW 13.8 mph 20.7 mph N/A   Overcast
6:54 AM 50.0 °F - 39.9 °F 68% 30.08 in 10.0 mi NW 18.4 mph - N/A   Clear
7:54 AM 48.0 °F - 39.0 °F 71% 30.09 in 10.0 mi WNW 5.8 mph - N/A   Clear
9:54 AM 50.0 °F - 36.0 °F 59% 30.12 in 10.0 mi WNW 11.5 mph - N/A   Clear
10:54 AM 48.0 °F - 34.0 °F 58% 30.12 in 10.0 mi WNW 9.2 mph - N/A   Clear
11:54 AM 53.1 °F - 34.0 °F 48% 30.11 in 10.0 mi NW 20.7 mph - N/A   Clear
12:54 PM 53.1 °F - 34.0 °F 48% 30.10 in 10.0 mi WNW 21.9 mph 27.6 mph N/A   Partly Cloudy
1:54 PM 52.0 °F - 30.9 °F 45% 30.11 in 10.0 mi WNW 20.7 mph - N/A   Partly Cloudy
2:54 PM 50.0 °F - 32.0 °F 50% 30.11 in 10.0 mi West 6.9 mph - N/A   Overcast
3:54 PM 48.9 °F - 28.9 °F 46% 30.14 in 10.0 mi WNW 13.8 mph 23.0 mph N/A   Overcast
4:54 PM 46.9 °F - 28.9 °F 50% 30.17 in 10.0 mi NW 16.1 mph 26.5 mph N/A   Overcast
5:54 PM 42.1 °F 33.9 °F 26.1 °F 53% 30.22 in 10.0 mi NNW 17.3 mph 26.5 mph N/A   Partly Cloudy
6:54 PM 39.9 °F 31.4 °F 21.9 °F 49% 30.25 in 10.0 mi NNW 16.1 mph 23.0 mph N/A   Clear
7:54 PM 37.9 °F 30.9 °F 19.9 °F 48% 30.28 in 10.0 mi NW 10.4 mph - N/A   Clear
8:54 PM 37.9 °F 29.2 °F 19.9 °F 48% 30.28 in 10.0 mi NNW 15.0 mph - N/A   Clear
9:54 PM 36.0 °F 30.3 °F 19.9 °F 52% 30.27 in 10.0 mi NW 6.9 mph - N/A   Clear
10:54 PM 35.1 °F 27.4 °F 19.9 °F 54% 30.29 in 10.0 mi North 10.4 mph - N/A   Clear
11:54 PM 33.1 °F 27.7 °F 19.9 °F 59% 30.30 in 10.0 mi NNW 5.8 mph - N/A   Clear